SCP
3 3 3 3 2 1 0 0 0 0 0 0 0 0 0 0 0 0 0 1 1 2 3 3 4 5 4 3 2 2 2 2 3 4 4 3 2 1 1 1 1 2 3 5 5 4 4 4 4
3 3 3 3 2 1 0 0 0 0 0 0 0 0 0 0 0 0 0 1 1 2 3 4 5 5 4 3 3 2 2 3 4 4 3 2 2 1 1 1 1 2 3 4 5 4 4 4 4
3 3 4 3 2 1 0 0 0 0 0 0 0 0 0 0 0 0 0 1 1 3 4 5 6 6 5 4 3 2 2 2 3 3 2 2 1 1 1 1 2 2 3 3 4 4 4 4 4
4 4 4 2 1 0 0 0 0 0 0 0 0 0 0 0 0 0 0 0 1 3 5 6 6 6 6 5 4 3 2 2 2 1 1 1 1 1 1 1 2 2 3 3 4 4 4 4 4
5 5 3 1 0 0 0 0 0 0 0 0 0 1 0 1 0 0 0 0 1 2 4 5 6 7 8 7 5 4 2 2 1 1 1 1 1 1 1 1 1 2 2 3 4 4 4 4 4
5 4 2 1 0 0 0 0 0 0 0 0 1 1 1 1 1 0 0 1 1 2 4 5 6 7 9 9 7 5 3 2 1 1 1 1 1 1 1 1 1 1 2 3 4 4 3 4 4
4 3 2 1 0 0 0 0 0 0 0 0 1 1 1 1 1 1 1 1 1 1 3 5 6 8 9 9 8 7 5 3 1 1 1 1 1 2 2 2 1 2 2 3 3 3 3 3 4
3 2 1 1 0 0 0 0 0 0 0 0 1 1 1 1 1 1 1 1 1 1 2 4 5 7 8 9 9 8 6 3 1 1 1 2 2 2 2 2 2 2 2 2 2 2 2 3 4
3 2 1 0 0 0 0 0 0 0 0 1 1 1 1 1 1 0 1 1 1 1 1 2 5 7 8 8 9 8 5 2 1 1 1 2 2 2 2 2 2 2 1 1 1 2 2 2 3
2 2 1 0 0 0 0 0 0 0 0 1 1 1 1 1 1 1 1 1 2 1 1 2 5 7 8 8 7 5 3 1 1 1 1 1 1 1 1 1 1 1 1 1 1 2 2 2 1
1 1 1 0 0 0 0 0 0 0 0 1 1 1 1 1 1 1 1 1 2 2 1 2 4 6 7 6 4 2 1 1 1 1 1 1 1 1 1 2 2 1 1 1 1 1 1 1 1
1 1 0 0 0 0 0 0 0 0 0 1 1 1 1 1 1 1 1 1 2 2 1 2 3 4 5 5 3 1 1 1 1 1 1 1 1 1 1 2 2 2 1 1 1 1 1 1 1
0 0 0 0 0 0 0 0 0 0 1 1 1 1 1 1 1 1 1 1 2 2 1 1 2 3 4 3 2 1 1 1 1 1 1 1 1 1 1 2 2 2 2 1 1 1 1 1 1
0 0 0 0 0 0 0 0 0 1 1 1 1 1 1 1 1 1 1 1 2 2 2 1 2 2 3 3 2 1 1 1 1 1 1 1 1 1 1 1 2 2 2 2 2 1 1 1 1
0 0 0 0 0 0 0 0 1 1 2 2 1 1 1 1 1 2 2 2 2 2 2 2 2 2 2 2 2 1 1 1 1 1 1 1 1 1 1 1 2 2 2 2 2 2 1 1 1
0 0 0 0 0 0 1 1 1 2 2 2 1 1 1 1 1 2 3 2 2 2 2 2 2 2 2 2 2 1 1 1 1 1 1 1 1 1 1 1 2 2 2 3 3 2 1 1 1
0 0 0 0 0 0 1 1 2 2 2 2 1 1 1 1 2 3 3 2 2 3 3 3 2 3 4 4 3 2 1 1 1 1 1 1 2 1 1 1 2 2 3 3 3 2 2 1 1
1 0 0 0 0 0 1 1 2 2 2 2 2 2 2 2 3 3 3 2 3 4 4 4 3 4 5 5 4 2 1 1 1 1 1 2 2 2 2 2 2 3 3 4 3 2 2 2 1
1 0 0 0 0 0 1 1 2 2 2 2 3 3 3 3 3 4 3 2 3 5 6 5 4 4 6 6 4 2 1 1 1 2 2 2 2 2 2 2 3 3 4 4 4 3 2 2 2
0 0 0 0 0 0 1 1 1 2 2 3 3 4 4 4 4 4 3 3 4 7 8 8 6 5 5 5 4 2 2 2 2 2 3 2 2 2 2 3 3 4 5 5 4 3 2 2 2
0 0 0 0 0 0 0 1 1 2 2 3 4 5 5 5 4 4 4 4 5 9 11 11 9 7 6 5 4 2 2 2 2 2 3 3 3 3 3 3 4 4 5 4 4 3 3 2 2
0 0 0 0 0 0 0 1 1 1 2 2 3 5 6 6 5 4 4 5 6 10 15 15 13 9 7 6 4 3 2 3 2 2 3 4 4 3 3 4 4 4 4 4 4 3 3 3 2
0 0 0 0 0 0 0 1 1 1 1 2 3 5 7 8 7 6 5 5 6 11 17 19 18 13 9 6 4 3 3 3 3 2 3 3 4 3 3 3 4 5 4 4 4 4 4 3 3
0 0 0 0 0 0 1 1 1 1 1 2 4 5 7 9 9 7 5 5 6 10 17 22 21 16 11 7 5 4 4 3 3 3 3 3 3 3 3 3 4 4 4 4 5 5 5 4 4
0 0 0 0 0 0 0 1 1 1 1 2 3 5 7 10 11 9 6 5 7 12 19 23 22 17 12 8 6 5 5 4 4 4 4 4 4 4 4 4 4 4 4 5 6 6 6 5 5
0 0 1 1 0 0 0 1 2 2 2 2 3 5 7 10 12 10 7 6 8 14 20 21 19 15 11 8 7 6 6 5 5 5 5 4 4 4 5 6 6 5 5 5 6 6 6 6 6
0 0 0 0 0 0 0 1 3 2 2 2 3 5 8 10 11 9 7 6 8 15 19 19 17 14 11 9 8 7 6 6 6 5 5 4 4 4 6 7 8 8 7 7 6 6 6 6 7
0 0 0 0 0 0 0 1 2 2 2 2 3 5 8 10 11 9 7 6 9 14 18 17 15 12 11 10 10 9 7 6 6 6 5 4 4 5 7 8 8 9 8 8 6 5 5 7 7
0 0 0 0 0 0 1 1 2 2 2 3 4 6 9 11 10 8 6 6 8 14 17 16 14 11 9 10 11 11 10 8 7 6 5 5 6 7 8 8 8 8 8 7 6 4 5 6 7
0 0 0 1 0 0 1 1 2 2 3 3 4 6 9 11 10 8 6 5 8 14 16 16 14 11 8 9 10 12 12 10 7 6 6 6 7 8 8 8 7 7 8 7 5 4 4 5 6
Wind_Speed
9 10 8 5 4 2 6 9 11 11 12 12 12 13 16 15 11 9 7 9 11 12 11 10 9 10 11 10 10 10 11 12 12 11 10 9 9 9 8 8 8 8 8 7 7 7 7 6 6
9 9 6 5 3 3 8 10 11 12 11 11 12 15 16 15 13 10 8 9 12 13 11 11 12 12 12 11 11 10 11 12 12 11 10 9 9 8 8 8 8 7 7 7 6 6 6 6 5
10 10 5 4 1 6 9 10 10 10 9 11 13 15 12 10 11 9 9 10 12 13 12 12 13 13 13 12 11 11 11 11 11 10 10 9 9 8 8 7 7 7 7 6 6 5 5 5 5
7 6 5 1 6 9 9 9 9 9 10 11 11 11 11 10 10 10 11 12 14 14 14 13 14 14 13 12 11 11 11 11 10 9 9 8 8 8 8 7 7 6 6 6 6 5 5 5 4
6 4 2 3 7 9 8 8 8 9 10 12 14 14 12 11 13 13 12 13 13 13 13 13 14 13 12 12 11 11 11 10 9 9 9 8 7 7 7 7 7 6 6 6 5 4 4 4 3
4 4 1 4 7 7 7 6 9 10 10 12 14 14 11 9 12 12 12 13 12 11 13 12 13 13 13 12 11 11 10 9 9 8 8 7 7 6 6 6 6 6 6 5 5 4 3 3 3
5 4 1 4 6 7 7 6 8 9 10 10 12 11 10 10 11 11 11 12 12 11 11 10 10 11 12 12 12 11 10 9 8 7 6 6 6 5 5 6 6 6 6 5 4 3 2 2 3
4 3 2 5 6 8 8 7 8 9 10 8 8 9 10 11 11 11 11 11 10 10 10 9 9 9 9 9 10 10 10 8 8 7 6 5 5 4 6 7 7 6 5 5 3 3 2 2 3
6 2 3 6 5 7 6 7 8 9 9 9 10 12 14 14 12 10 10 10 9 8 7 8 8 8 8 8 9 9 9 7 6 6 6 4 3 3 4 7 8 7 5 4 3 3 3 4 4
2 1 4 5 5 6 7 6 6 7 9 10 12 14 14 13 12 10 10 10 9 8 7 6 7 6 6 6 6 5 5 5 4 3 3 2 1 2 4 7 7 6 6 5 4 5 5 5 3
2 2 3 4 5 6 6 6 6 8 7 9 12 14 13 12 11 10 10 10 9 8 7 6 6 5 5 4 4 2 2 3 3 4 2 1 1 2 3 3 4 4 5 4 3 4 3 2 1
1 2 3 4 5 5 5 6 7 8 9 10 13 14 13 11 10 10 10 10 9 8 7 6 6 5 4 3 2 2 2 2 2 3 3 2 1 1 1 1 2 2 1 1 1 1 1 0 0
1 2 2 4 5 5 5 6 8 9 10 11 13 13 12 10 9 10 9 9 9 8 7 6 6 5 3 2 1 3 2 2 2 3 2 2 1 1 1 1 1 1 1 1 1 0 0 1 1
2 1 2 2 4 4 5 6 6 9 11 11 12 11 11 10 10 10 9 9 9 8 7 5 6 6 3 2 1 1 2 2 2 2 3 2 1 1 1 1 1 0 0 1 1 0 0 1 1
3 2 1 3 5 5 4 5 6 9 10 11 11 10 10 10 9 9 10 9 9 8 7 5 6 6 4 2 1 1 2 2 2 2 3 2 1 1 0 1 1 0 0 1 1 1 1 2 2
7 4 3 4 5 5 4 4 7 10 9 9 10 10 10 9 10 9 9 9 9 8 6 4 5 6 5 2 1 1 1 2 2 2 2 2 1 1 0 0 0 0 1 0 1 0 0 1 0
7 5 4 4 3 4 4 5 8 9 9 9 9 10 10 10 10 10 10 9 9 8 6 4 4 5 4 3 1 1 1 1 1 2 2 2 1 1 1 0 0 1 0 0 0 1 0 0 0
5 4 3 2 3 3 4 5 8 10 10 11 10 11 11 10 10 10 9 9 9 8 6 5 4 4 3 3 1 0 1 1 1 1 2 2 1 1 1 1 1 0 1 1 1 0 0 1 1
7 6 5 2 3 4 4 5 10 11 10 11 10 10 11 11 11 10 9 9 9 8 6 5 5 4 3 2 2 2 1 1 1 2 2 1 1 1 1 1 1 1 1 1 0 0 1 1 0
9 7 6 4 5 3 3 4 6 8 10 10 11 11 11 11 11 10 10 9 9 8 7 6 5 5 4 3 2 1 1 1 1 1 2 1 1 1 1 0 1 1 1 1 1 0 0 1 1
9 7 7 6 5 3 3 4 4 7 8 10 10 11 11 11 11 11 10 9 9 8 8 6 5 5 4 4 3 2 1 1 1 1 1 1 1 1 0 0 1 0 1 1 1 1 1 1 1
9 7 8 8 7 6 7 4 5 7 9 10 11 11 12 12 12 12 11 10 9 9 9 7 6 5 4 4 3 3 3 2 1 1 1 1 1 1 0 0 0 1 0 0 2 1 1 1 1
8 7 10 11 9 8 7 5 4 6 8 10 11 12 12 13 12 12 11 10 9 9 9 8 7 6 5 5 4 3 2 2 1 1 2 2 1 1 1 0 0 1 0 1 2 0 1 1 1
6 6 10 11 8 9 9 7 4 6 7 9 11 11 12 12 12 12 11 9 8 8 8 8 8 7 6 5 4 3 2 1 1 1 1 1 1 1 1 1 0 1 1 1 2 1 2 1 2
8 6 6 7 6 8 6 5 2 6 6 6 8 10 11 11 11 11 11 10 9 8 8 8 8 8 7 6 5 4 3 3 2 2 2 2 1 1 1 1 1 1 1 2 1 2 2 2 1
10 10 8 7 7 8 5 2 1 5 6 7 8 10 10 10 10 10 9 8 7 8 8 7 8 8 7 6 4 3 3 3 2 2 2 2 1 1 2 2 1 1 1 1 1 2 2 1 2
11 10 9 8 9 8 5 3 2 3 5 6 9 11 10 9 10 10 9 9 8 7 7 8 8 7 7 6 5 4 3 2 2 2 2 2 1 1 1 1 1 1 1 1 1 1 1 1 1
11 10 6 6 5 7 7 4 2 4 4 5 8 9 9 9 9 9 8 8 8 8 7 7 7 7 6 6 5 5 4 3 2 2 2 1 1 1 0 1 1 1 1 1 1 2 1 1 1
10 10 8 6 5 6 7 2 3 6 3 4 8 9 7 7 8 8 8 7 7 7 7 7 7 7 6 5 5 4 4 4 3 2 2 1 1 1 1 1 1 2 2 1 2 3 2 2 2
10 11 10 7 7 8 7 2 3 4 4 3 6 8 7 6 6 7 7 6 6 6 6 6 6 6 5 4 4 4 4 4 4 3 2 2 1 1 1 1 2 2 2 2 2 3 3 2 2
Wind_Direction
209 219 224 238 241 224 62 65 68 63 61 57 57 61 59 52 57 79 93 95 102 108 111 109 100 105 106 106 101 95 94 104 110 111 109 107 108 109 111 112 114 114 113 113 115 121 122 123 124
234 229 232 242 250 77 70 70 67 64 71 75 72 72 69 66 74 90 96 99 105 106 106 101 100 104 107 106 101 97 97 101 106 109 109 109 109 112 113 110 112 117 117 115 116 122 128 130 134
251 250 251 240 15 71 77 79 82 77 74 77 73 65 62 72 81 93 105 104 105 104 102 103 103 103 105 105 102 100 102 103 104 107 109 111 113 113 112 107 112 119 123 122 122 128 133 137 145
244 235 236 246 55 65 78 84 86 86 78 75 79 75 70 68 88 103 111 107 104 106 106 108 107 107 108 107 103 103 105 105 105 106 108 109 110 111 112 110 111 117 124 128 130 135 138 143 156
239 264 247 74 76 70 68 77 89 83 78 80 82 88 81 82 99 108 110 105 100 105 111 115 114 114 113 110 109 109 107 108 107 105 104 105 109 112 116 118 117 118 123 127 129 132 139 151 169
252 252 236 83 85 86 78 73 83 83 90 94 95 95 94 103 105 110 109 105 104 106 112 119 122 122 119 116 116 115 113 113 113 111 110 110 113 120 128 130 125 124 125 124 122 123 131 160 176
259 285 19 86 90 90 84 64 79 84 85 88 101 102 110 114 112 113 109 110 113 110 113 122 130 127 124 123 123 123 123 123 120 118 118 119 121 125 133 139 130 126 125 126 127 130 145 173 193
254 294 359 78 87 86 85 82 76 85 85 96 100 109 122 123 122 117 111 104 104 109 115 126 132 133 136 132 131 132 133 134 135 134 133 132 133 143 152 153 143 137 138 143 148 158 174 194 207
256 295 19 66 83 96 103 96 87 81 87 79 78 103 121 127 125 121 114 110 110 108 112 121 123 130 135 134 137 143 142 144 147 147 148 158 154 140 145 139 146 153 158 166 183 199 209 218 218
215 62 48 68 80 98 99 92 106 100 96 95 95 107 124 134 138 135 128 124 123 118 113 109 113 118 119 123 134 149 150 152 163 136 151 167 158 123 114 132 151 164 174 185 207 227 236 231 215
189 98 88 80 84 94 102 104 99 108 120 121 125 132 139 144 146 138 133 129 126 120 114 113 112 110 113 116 126 137 138 144 146 131 141 135 124 120 120 144 155 174 192 196 205 225 229 218 187
196 68 88 89 90 91 96 101 95 89 97 117 131 137 143 149 147 139 133 129 121 118 115 113 105 93 84 92 119 136 135 141 141 141 149 120 115 119 122 140 160 183 174 158 206 219 200 111 114
228 117 103 96 103 103 108 104 106 105 112 119 128 138 145 147 139 127 124 123 126 127 121 114 109 104 94 89 104 119 124 130 122 122 128 126 141 120 106 114 138 134 132 159 163 99 95 310 254
303 47 79 127 127 143 125 106 109 116 123 127 135 143 148 145 142 135 135 131 129 128 130 128 126 119 121 119 113 108 132 126 120 123 127 136 114 94 109 146 144 98 109 119 116 152 210 242 232
289 261 257 203 173 156 131 120 130 131 138 142 143 146 146 148 146 142 142 142 140 138 137 140 140 130 136 149 185 143 145 137 124 128 126 131 113 102 105 159 151 141 181 162 167 183 211 226 203
276 243 229 220 178 156 165 148 138 147 156 152 151 150 151 153 154 147 144 144 140 141 138 146 145 137 144 154 184 158 148 129 129 128 131 134 135 164 211 178 103 208 176 171 155 167 271 297 246
244 233 222 208 195 158 179 145 145 160 161 157 160 156 158 159 158 152 153 147 141 137 134 139 131 137 144 149 163 153 127 121 131 122 119 137 158 175 180 182 273 229 123 65 272 112 49 292 337
274 271 254 218 194 186 193 159 165 172 173 167 168 162 163 166 162 156 156 149 140 136 135 141 144 142 148 145 146 160 132 137 125 117 114 138 163 169 216 195 220 195 117 97 46 61 217 259 251
269 273 273 265 231 212 209 194 179 176 180 169 169 168 168 168 159 153 156 151 145 143 146 152 158 155 158 159 177 173 168 153 138 140 121 150 176 188 221 282 150 139 110 102 103 48 265 253 148
256 268 273 257 250 245 222 228 193 179 184 174 175 171 170 166 157 154 159 157 158 157 159 159 165 164 170 169 172 177 164 173 145 135 131 169 186 228 204 224 245 142 136 152 200 181 278 280 175
263 272 286 284 270 243 228 227 216 194 195 179 176 173 167 166 163 163 167 165 163 163 163 166 166 164 173 169 170 164 156 184 162 162 152 182 184 197 289 141 307 311 165 163 197 245 225 260 243
264 276 280 274 267 264 253 242 198 202 192 183 178 176 170 167 165 165 166 169 170 167 165 161 161 159 163 169 171 172 171 182 181 171 160 180 192 195 166 125 353 324 355 156 232 197 263 257 276
272 291 289 286 279 272 258 259 208 185 184 181 182 178 171 166 163 162 165 170 172 167 164 162 159 162 163 171 173 175 189 195 184 166 164 176 184 182 162 155 183 266 290 257 269 292 262 277 288
262 277 285 280 278 269 261 249 213 183 183 175 177 170 162 162 160 161 164 164 168 164 162 161 158 159 162 169 173 182 200 199 167 155 167 201 188 185 194 186 191 232 247 256 269 270 246 271 301
245 252 267 274 258 258 257 246 194 157 155 152 154 154 155 159 161 160 162 162 161 163 163 164 162 163 169 173 178 188 197 189 185 204 204 222 214 180 180 208 193 240 242 238 248 242 243 248 261
242 247 250 268 278 288 292 281 139 130 130 137 137 136 144 155 157 152 149 149 157 166 164 161 160 163 168 171 176 182 181 200 200 205 222 223 233 188 180 188 193 239 259 255 229 262 248 239 254
252 256 268 274 277 283 272 199 186 122 138 140 137 136 147 155 151 146 152 153 157 162 159 158 154 160 170 173 172 175 183 208 217 210 228 234 239 239 144 153 189 232 255 284 269 263 278 278 270
243 262 271 269 279 283 282 254 177 168 191 157 137 137 141 144 141 143 149 154 158 159 153 150 154 160 166 171 182 182 184 196 202 222 223 242 229 276 168 200 208 228 247 274 276 268 262 260 270
245 244 263 268 267 274 278 277 153 175 192 167 142 131 134 145 144 143 145 148 150 149 150 152 152 155 167 177 177 180 183 196 204 211 213 231 240 215 187 204 225 219 222 238 256 276 278 263 271
257 261 252 256 260 260 269 237 163 155 140 134 124 125 127 129 130 131 134 139 144 149 150 150 154 162 170 166 169 189 186 191 201 205 203 206 233 236 206 211 237 243 233 236 242 261 281 269 267